RSD058 URRP-UUWW

Flight info

Callsign RSD058
Flight time N/A
Altitude 35000
Route ABLOG TEDRU R720 MOR G128 NATIT W21 PELNE OLOPI
Aircraft T204/M-V/N

Departure

Time 2026-04-25 13:37
Airport Platov International Airport (URRP)

Arrival

Time N/A
Airport Vnukovo International Airport (UUWW)
Time Latitude Longitude Altitude Speed Heading
2026-04-25 13:27 47.48915 39.92715 205 ft 0 kts 144°
2026-04-25 13:29 47.48918 39.92713 206 ft 2 kts 144°
2026-04-25 13:29 47.48930 39.92699 206 ft 2 kts 143°
2026-04-25 13:29 47.48941 39.92686 206 ft 2 kts 143°
2026-04-25 13:30 47.48964 39.92661 207 ft 2 kts 144°
2026-04-25 13:30 47.48975 39.92651 207 ft 0 kts 144°
2026-04-25 13:30 47.48982 39.92639 207 ft 2 kts 111°
2026-04-25 13:31 47.48982 39.92608 208 ft 0 kts 58°
2026-04-25 13:31 47.48978 39.92599 208 ft 1 kts 59°
2026-04-25 13:31 47.48974 39.92590 208 ft 0 kts 56°
2026-04-25 13:33 47.48978 39.92600 208 ft 5 kts 56°
2026-04-25 13:33 47.49004 39.92655 207 ft 16 kts 54°
2026-04-25 13:34 47.49110 39.92872 218 ft 22 kts 54°
2026-04-25 13:34 47.49215 39.93090 222 ft 28 kts 54°
2026-04-25 13:34 47.49320 39.93307 235 ft 20 kts 55°
2026-04-25 13:34 47.49397 39.93432 251 ft 10 kts 11°
2026-04-25 13:35 47.49493 39.93354 247 ft 18 kts 324°
2026-04-25 13:35 47.49598 39.93328 248 ft 18 kts 45°
2026-04-25 13:35 47.49692 39.93514 251 ft 23 kts 54°
2026-04-25 13:35 47.49780 39.93696 253 ft 20 kts 54°
2026-04-25 13:36 47.49855 39.93847 255 ft 17 kts 53°
2026-04-25 13:36 47.49949 39.93990 259 ft 15 kts
2026-04-25 13:36 47.50003 39.93942 263 ft 5 kts 328°
2026-04-25 13:36 47.50045 39.93911 266 ft 3 kts 324°
2026-04-25 13:37 47.50048 39.93814 267 ft 28 kts 233°
2026-04-25 13:37 47.49732 39.93167 262 ft 126 kts 234°
2026-04-25 13:37 47.49070 39.91833 727 ft 184 kts 236°
2026-04-25 13:37 47.48305 39.90218 1574 ft 209 kts 239°
2026-04-25 13:38 47.48052 39.88126 1944 ft 217 kts 284°
2026-04-25 13:38 47.48844 39.85986 2518 ft 251 kts 308°
2026-04-25 13:38 47.50189 39.84379 3021 ft 251 kts 330°
2026-04-25 13:38 47.51850 39.83672 3514 ft 258 kts 352°
2026-04-25 13:39 47.53651 39.83960 4020 ft 261 kts 14°
2026-04-25 13:39 47.55292 39.85048 4514 ft 267 kts 31°
2026-04-25 13:39 47.56642 39.86978 4972 ft 274 kts 49°
2026-04-25 13:39 47.57746 39.89168 5185 ft 271 kts 51°
2026-04-25 13:40 47.58821 39.91411 5682 ft 271 kts 52°
2026-04-25 13:40 47.59924 39.93728 6187 ft 279 kts 52°
2026-04-25 13:40 47.61044 39.96090 6691 ft 280 kts 52°
2026-04-25 13:40 47.62146 39.98420 7186 ft 280 kts 52°
2026-04-25 13:41 47.63265 40.00787 7689 ft 281 kts 52°
2026-04-25 13:41 47.64380 40.03148 8188 ft 281 kts 52°
2026-04-25 13:41 47.65498 40.05517 8689 ft 281 kts 52°
2026-04-25 13:41 47.66618 40.07892 9190 ft 282 kts 52°
2026-04-25 13:42 47.67746 40.10284 9691 ft 285 kts 52°
2026-04-25 13:42 47.68873 40.12678 10190 ft 284 kts 52°
2026-04-25 13:42 47.70011 40.15097 10694 ft 286 kts 52°
2026-04-25 13:42 47.71154 40.17529 11197 ft 288 kts 52°
2026-04-25 13:43 47.72293 40.19952 11694 ft 289 kts 52°
2026-04-25 13:43 47.73446 40.22409 12196 ft 290 kts 52°
2026-04-25 13:43 47.74597 40.24864 12694 ft 293 kts 52°
2026-04-25 13:43 47.75787 40.27400 13141 ft 316 kts 52°
2026-04-25 13:44 47.77053 40.30098 13532 ft 322 kts 52°
2026-04-25 13:44 47.78331 40.32836 13906 ft 323 kts 52°
2026-04-25 13:44 47.79606 40.35571 14277 ft 325 kts 52°
2026-04-25 13:44 47.80890 40.38367 14653 ft 328 kts 54°
2026-04-25 13:45 47.82039 40.41295 15026 ft 331 kts 57°
2026-04-25 13:45 47.83169 40.44271 15400 ft 333 kts 57°
2026-04-25 13:45 47.84309 40.47279 15775 ft 335 kts 57°
2026-04-25 13:45 47.85455 40.50289 16149 ft 337 kts 57°
2026-04-25 13:46 47.86606 40.53303 16521 ft 339 kts 57°
2026-04-25 13:46 47.87785 40.56381 16898 ft 341 kts 57°
2026-04-25 13:46 47.88952 40.59420 17268 ft 343 kts 56°
2026-04-25 13:46 47.90181 40.62613 17663 ft 359 kts 56°
2026-04-25 13:47 47.91418 40.65827 18038 ft 361 kts 57°
2026-04-25 13:47 47.92666 40.69070 18409 ft 363 kts 57°
2026-04-25 13:47 47.93927 40.72375 18783 ft 365 kts 57°
2026-04-25 13:47 47.95176 40.75678 19155 ft 368 kts 57°
2026-04-25 13:48 47.96424 40.78989 19524 ft 370 kts 57°
2026-04-25 13:48 47.97680 40.82328 19894 ft 373 kts 57°
2026-04-25 13:48 47.98955 40.85719 20267 ft 377 kts 57°
2026-04-25 13:48 48.00240 40.89134 20638 ft 380 kts 57°
2026-04-25 13:49 48.01538 40.92583 21010 ft 383 kts 57°
2026-04-25 13:49 48.02853 40.96075 21383 ft 387 kts 57°
2026-04-25 13:49 48.04184 40.99604 21756 ft 391 kts 57°
2026-04-25 13:49 48.05511 41.03125 22126 ft 395 kts 57°
2026-04-25 13:50 48.06868 41.06721 22501 ft 397 kts 56°
2026-04-25 13:50 48.08219 41.10298 22871 ft 400 kts 56°
2026-04-25 13:50 48.09594 41.13936 23243 ft 402 kts 56°
2026-04-25 13:50 48.10968 41.17569 23619 ft 404 kts 56°
2026-04-25 13:51 48.12362 41.21252 24003 ft 407 kts 56°
2026-04-25 13:51 48.13758 41.24934 24383 ft 410 kts 56°
2026-04-25 13:51 48.15154 41.28622 24762 ft 412 kts 56°
2026-04-25 13:51 48.16568 41.32417 25146 ft 415 kts 56°
2026-04-25 13:52 48.17960 41.36180 25527 ft 423 kts 56°
2026-04-25 13:52 48.19435 41.40164 25939 ft 449 kts 57°
2026-04-25 13:52 48.20972 41.44322 26341 ft 463 kts 57°
2026-04-25 13:52 48.22519 41.48528 26720 ft 461 kts 57°
2026-04-25 13:53 48.24061 41.52715 27098 ft 460 kts 57°
2026-04-25 13:53 48.25611 41.56916 27477 ft 460 kts 56°
2026-04-25 13:53 48.27147 41.61074 27852 ft 460 kts 56°
2026-04-25 13:53 48.28705 41.65288 28235 ft 459 kts 57°
2026-04-25 13:54 48.30251 41.69461 28603 ft 458 kts 57°
2026-04-25 13:54 48.31797 41.73631 28973 ft 459 kts 57°
2026-04-25 13:54 48.33330 41.77762 29344 ft 458 kts 57°
2026-04-25 13:54 48.35051 41.81800 29710 ft 452 kts 49°
2026-04-25 13:55 48.36935 41.85528 30084 ft 452 kts 47°
2026-04-25 13:55 48.38865 41.89290 30461 ft 452 kts 47°
2026-04-25 13:55 48.40762 41.92992 30828 ft 450 kts 47°
2026-04-25 13:55 48.42652 41.96701 31198 ft 450 kts 47°
2026-04-25 13:56 48.44556 42.00437 31570 ft 451 kts 48°
2026-04-25 13:56 48.46460 42.04181 31942 ft 449 kts 47°
2026-04-25 13:56 48.48358 42.07919 32315 ft 449 kts 47°
2026-04-25 13:56 48.50250 42.11633 32693 ft 462 kts 47°
2026-04-25 13:57 48.52269 42.15590 33101 ft 477 kts 47°
2026-04-25 13:57 48.52939 42.16909 33228 ft 478 kts 47°
2026-04-25 13:57 48.56310 42.23541 33854 ft 476 kts 47°
2026-04-25 13:57 48.58304 42.27455 34228 ft 475 kts 47°
2026-04-25 13:58 48.60299 42.31374 34598 ft 475 kts 47°
2026-04-25 13:58 48.62285 42.35335 34946 ft 474 kts 47°
2026-04-25 13:58 48.64275 42.39323 34999 ft 476 kts 48°
2026-04-25 13:59 48.68242 42.47286 34997 ft 473 kts 47°
2026-04-25 13:59 48.72202 42.55223 34995 ft 474 kts 47°
2026-04-25 14:00 48.74833 42.60490 34991 ft 472 kts 47°
2026-04-25 14:00 48.80015 42.71077 34991 ft 476 kts 50°
2026-04-25 14:01 48.83865 42.79237 34988 ft 474 kts 50°
2026-04-25 14:01 48.87660 42.87299 34992 ft 474 kts 50°
2026-04-25 14:02 48.91493 42.95436 34988 ft 475 kts 49°
2026-04-25 14:02 48.95363 43.03637 34988 ft 478 kts 50°
2026-04-25 14:03 48.99230 43.11827 34988 ft 476 kts 50°
2026-04-25 14:03 49.03067 43.19942 34990 ft 471 kts 50°
2026-04-25 14:04 49.06864 43.27954 34987 ft 464 kts 50°
2026-04-25 14:04 49.10617 43.35862 34993 ft 458 kts 50°
2026-04-25 14:05 49.14318 43.43649 34996 ft 456 kts 50°
2026-04-25 14:05 49.18044 43.51481 34996 ft 457 kts 50°
2026-04-25 14:06 49.21771 43.59302 34996 ft 457 kts 50°
2026-04-25 14:06 49.25492 43.67102 34994 ft 457 kts 50°
2026-04-25 14:07 49.29272 43.74952 34994 ft 457 kts 50°
2026-04-25 14:07 49.33040 43.82803 34993 ft 456 kts 50°
2026-04-25 14:08 49.36793 43.90644 34993 ft 456 kts 50°
2026-04-25 14:08 49.40543 43.98480 34993 ft 456 kts 50°
2026-04-25 14:09 49.44297 44.06315 34994 ft 456 kts 50°
2026-04-25 14:09 49.48161 44.13963 34981 ft 452 kts 41°
2026-04-25 14:10 49.53394 44.18910 34991 ft 441 kts 15°
2026-04-25 14:10 49.56401 44.19870 34990 ft 436 kts
2026-04-25 14:10 49.59440 44.19732 34992 ft 434 kts 351°
2026-04-25 14:11 49.65346 44.18092 34992 ft 433 kts 348°
2026-04-25 14:11 49.71253 44.16338 34992 ft 433 kts 348°
2026-04-25 14:12 49.77152 44.14579 34991 ft 433 kts 348°
2026-04-25 14:12 49.83051 44.12816 34991 ft 433 kts 348°
2026-04-25 14:13 49.88945 44.11050 34991 ft 433 kts 348°
2026-04-25 14:13 49.94756 44.09305 34990 ft 433 kts 348°
2026-04-25 14:14 50.00658 44.07528 34990 ft 433 kts 348°
2026-04-25 14:14 50.06569 44.05744 34989 ft 433 kts 348°
2026-04-25 14:15 50.12469 44.03960 34996 ft 434 kts 348°
2026-04-25 14:15 50.18386 44.02165 34995 ft 433 kts 348°
2026-04-25 14:16 50.24252 44.00382 34994 ft 434 kts 348°
2026-04-25 14:16 50.30146 43.98586 34994 ft 433 kts 348°
2026-04-25 14:17 50.36041 43.96785 34994 ft 433 kts 348°
2026-04-25 14:17 50.41963 43.94972 34993 ft 433 kts 348°
2026-04-25 14:18 50.47856 43.93164 35061 ft 432 kts 348°
2026-04-25 14:18 50.50810 43.92255 35314 ft 432 kts 348°
2026-04-25 14:18 50.53739 43.91353 35562 ft 432 kts 348°
2026-04-25 14:18 50.56679 43.90447 35809 ft 432 kts 348°
2026-04-25 14:19 50.59636 43.89534 35991 ft 432 kts 348°
2026-04-25 14:19 50.65503 43.87720 35991 ft 431 kts 348°
2026-04-25 14:20 50.71378 43.85898 35991 ft 431 kts 348°
2026-04-25 14:20 50.77245 43.84075 35990 ft 431 kts 348°
2026-04-25 14:21 50.83168 43.82230 35990 ft 431 kts 348°
2026-04-25 14:21 50.89042 43.80395 35990 ft 431 kts 348°
2026-04-25 14:22 50.94848 43.78577 35989 ft 425 kts 348°
2026-04-25 14:22 51.00627 43.76762 35988 ft 421 kts 348°
2026-04-25 14:23 51.06284 43.74982 35984 ft 417 kts 348°
2026-04-25 14:23 51.11974 43.73188 35981 ft 418 kts 348°
2026-04-25 14:24 51.17658 43.71392 35976 ft 420 kts 348°
2026-04-25 14:24 51.23415 43.69568 35966 ft 422 kts 348°
2026-04-25 14:25 51.29118 43.67757 35914 ft 417 kts 348°
2026-04-25 14:25 51.34791 43.65951 35869 ft 418 kts 348°
2026-04-25 14:26 51.40460 43.64142 35849 ft 418 kts 348°
2026-04-25 14:26 51.46129 43.62328 35846 ft 418 kts 348°
2026-04-25 14:27 51.51817 43.60503 35835 ft 418 kts 348°
2026-04-25 14:27 51.57525 43.58669 35829 ft 418 kts 348°
2026-04-25 14:28 51.63209 43.56836 35828 ft 418 kts 348°
2026-04-25 14:28 51.68866 43.55008 35828 ft 418 kts 348°
2026-04-25 14:29 51.74562 43.53162 35827 ft 418 kts 348°
2026-04-25 14:29 51.80244 43.51316 35826 ft 418 kts 348°
2026-04-25 14:30 51.85909 43.49471 35826 ft 418 kts 348°
2026-04-25 14:30 51.94464 43.46676 35825 ft 418 kts 348°
2026-04-25 14:31 52.00116 43.44823 35824 ft 418 kts 348°
2026-04-25 14:31 52.05794 43.42956 35786 ft 418 kts 348°
2026-04-25 14:32 52.11480 43.41083 35742 ft 418 kts 348°
2026-04-25 14:32 52.17190 43.39196 35702 ft 418 kts 348°
2026-04-25 14:33 52.22840 43.37324 35697 ft 418 kts 348°
2026-04-25 14:33 52.28509 43.35440 35697 ft 418 kts 348°
2026-04-25 14:34 52.34203 43.33536 35698 ft 418 kts 347°
2026-04-25 14:34 52.39864 43.31633 35697 ft 418 kts 347°
2026-04-25 14:35 52.45582 43.29705 35697 ft 418 kts 347°
2026-04-25 14:35 52.51230 43.27797 35696 ft 418 kts 348°
2026-04-25 14:36 52.56929 43.25867 35696 ft 418 kts 347°
2026-04-25 14:36 52.62579 43.23949 35695 ft 418 kts 348°
2026-04-25 14:37 52.68245 43.22021 35694 ft 418 kts 348°
2026-04-25 14:37 52.73945 43.20077 35694 ft 418 kts 347°
2026-04-25 14:38 52.79618 43.18138 35693 ft 418 kts 348°
2026-04-25 14:38 52.85285 43.16195 35692 ft 418 kts 348°
2026-04-25 14:39 52.90944 43.14252 35692 ft 418 kts 348°
2026-04-25 14:39 52.96625 43.12297 35691 ft 418 kts 348°
2026-04-25 14:40 53.02314 43.10333 35690 ft 418 kts 348°
2026-04-25 14:40 53.07897 43.07878 35678 ft 419 kts 336°
2026-04-25 14:41 53.12671 43.02416 35701 ft 423 kts 322°
2026-04-25 14:41 53.16478 42.94941 35697 ft 430 kts 304°
2026-04-25 14:42 53.18250 42.88945 35702 ft 434 kts 298°
2026-04-25 14:42 53.21389 42.76653 35699 ft 434 kts 297°
2026-04-25 14:43 53.23719 42.67304 35698 ft 435 kts 297°
2026-04-25 14:43 53.26025 42.58048 35697 ft 434 kts 297°
2026-04-25 14:44 53.28342 42.48764 35698 ft 435 kts 297°
2026-04-25 14:44 53.30676 42.39438 35717 ft 434 kts 298°
2026-04-25 14:45 53.33015 42.30119 35750 ft 435 kts 297°
2026-04-25 14:45 53.35351 42.20827 35778 ft 435 kts 297°
2026-04-25 14:46 53.37701 42.11520 35778 ft 434 kts 297°
2026-04-25 14:46 53.40054 42.02231 35778 ft 435 kts 297°
2026-04-25 14:47 53.41628 41.96035 35778 ft 434 kts 297°
2026-04-25 14:47 53.44774 41.83683 35777 ft 434 kts 298°
2026-04-25 14:48 53.47142 41.74423 35777 ft 435 kts 298°
2026-04-25 14:48 53.49529 41.65113 35776 ft 434 kts 298°
2026-04-25 14:49 53.51920 41.55816 35776 ft 434 kts 298°
2026-04-25 14:49 53.54306 41.46567 35775 ft 434 kts 298°
2026-04-25 14:50 53.56718 41.37242 35775 ft 434 kts 298°
2026-04-25 14:50 53.59122 41.27968 35776 ft 434 kts 298°
2026-04-25 14:51 53.61544 41.18652 35776 ft 434 kts 298°
2026-04-25 14:51 53.63953 41.09417 35775 ft 434 kts 298°
2026-04-25 14:52 53.66395 41.00091 35775 ft 434 kts 298°
2026-04-25 14:52 53.68418 40.92387 35774 ft 434 kts 298°
2026-04-25 14:53 53.71281 40.81517 35775 ft 435 kts 297°
2026-04-25 14:53 53.73735 40.72220 35774 ft 436 kts 297°
2026-04-25 14:54 53.76203 40.62897 35774 ft 436 kts 297°
2026-04-25 14:54 53.78676 40.53589 35773 ft 435 kts 297°
2026-04-25 14:55 53.81162 40.44257 35773 ft 435 kts 298°
2026-04-25 14:55 53.83656 40.34920 35773 ft 435 kts 297°
2026-04-25 14:56 53.86149 40.25603 35774 ft 436 kts 297°
2026-04-25 14:56 53.88639 40.16330 35774 ft 436 kts 297°
2026-04-25 14:57 53.91156 40.06986 35773 ft 436 kts 297°
2026-04-25 14:57 53.93670 39.97684 35773 ft 436 kts 298°
2026-04-25 14:58 53.96189 39.88388 35772 ft 435 kts 298°
2026-04-25 14:58 53.98730 39.79039 35772 ft 435 kts 298°
2026-04-25 14:59 54.01268 39.69725 35767 ft 436 kts 298°
2026-04-25 14:59 54.02550 39.65035 35448 ft 438 kts 298°
2026-04-25 14:59 54.03823 39.60379 35088 ft 431 kts 298°
2026-04-25 15:00 54.05054 39.55872 34695 ft 416 kts 298°
2026-04-25 15:00 54.06256 39.51478 34294 ft 402 kts 298°
2026-04-25 15:00 54.07411 39.47265 33898 ft 390 kts 298°
2026-04-25 15:00 54.08547 39.43129 33500 ft 380 kts 299°
2026-04-25 15:01 54.09661 39.39084 33108 ft 376 kts 299°
2026-04-25 15:01 54.10749 39.35141 32747 ft 380 kts 299°
2026-04-25 15:01 54.11901 39.30970 32378 ft 384 kts 298°
2026-04-25 15:01 54.13041 39.26845 32013 ft 385 kts 298°
2026-04-25 15:02 54.14183 39.22715 31646 ft 385 kts 298°
2026-04-25 15:02 54.15318 39.18614 31280 ft 385 kts 298°
2026-04-25 15:02 54.16453 39.14519 30916 ft 386 kts 298°
2026-04-25 15:02 54.17615 39.10339 30545 ft 387 kts 298°
2026-04-25 15:03 54.18766 39.06200 30178 ft 388 kts 298°
2026-04-25 15:03 54.19914 39.02078 29812 ft 388 kts 298°
2026-04-25 15:03 54.21074 38.97918 29444 ft 389 kts 298°
2026-04-25 15:03 54.22452 38.93970 29059 ft 388 kts 310°
2026-04-25 15:04 54.24378 38.90736 28691 ft 387 kts 321°
2026-04-25 15:04 54.26513 38.88016 28328 ft 388 kts 327°
2026-04-25 15:04 54.28827 38.85602 27956 ft 389 kts 330°
2026-04-25 15:04 54.31177 38.83377 27588 ft 390 kts 332°
2026-04-25 15:05 54.33569 38.81222 27217 ft 391 kts 332°
2026-04-25 15:05 54.35982 38.79101 26846 ft 392 kts 333°
2026-04-25 15:05 54.38422 38.76983 26472 ft 393 kts 333°
2026-04-25 15:06 54.43285 38.72791 25729 ft 394 kts 333°
2026-04-25 15:06 54.45711 38.70704 25359 ft 395 kts 333°
2026-04-25 15:06 54.48190 38.68571 24982 ft 396 kts 333°
2026-04-25 15:06 54.50632 38.66466 24611 ft 397 kts 333°
2026-04-25 15:07 54.53081 38.64352 24239 ft 398 kts 333°
2026-04-25 15:07 54.55534 38.62231 23862 ft 390 kts 333°
2026-04-25 15:07 54.57904 38.60181 23469 ft 372 kts 333°
2026-04-25 15:07 54.60169 38.58219 23077 ft 357 kts 333°
2026-04-25 15:08 54.62334 38.56341 22696 ft 352 kts 333°
2026-04-25 15:08 54.64518 38.54443 22320 ft 352 kts 333°
2026-04-25 15:08 54.66705 38.52541 21942 ft 351 kts 333°
2026-04-25 15:08 54.68880 38.50648 21623 ft 349 kts 333°
2026-04-25 15:09 54.71035 38.48769 21372 ft 348 kts 333°
2026-04-25 15:09 54.73167 38.46908 21121 ft 347 kts 333°
2026-04-25 15:09 54.77472 38.43174 20612 ft 345 kts 333°
2026-04-25 15:10 54.79620 38.41312 20357 ft 343 kts 333°
2026-04-25 15:10 54.81740 38.39471 20103 ft 342 kts 333°
2026-04-25 15:10 54.86103 38.36373 19582 ft 341 kts 348°
2026-04-25 15:11 54.88404 38.35701 19339 ft 340 kts 350°
2026-04-25 15:11 54.90734 38.35103 19084 ft 339 kts 351°
2026-04-25 15:11 54.92988 38.34539 18839 ft 338 kts 350°
2026-04-25 15:12 54.97600 38.33376 18337 ft 336 kts 350°
2026-04-25 15:12 54.99914 38.32789 18083 ft 335 kts 350°
2026-04-25 15:12 55.02195 38.32208 17833 ft 334 kts 350°
2026-04-25 15:12 55.02954 38.32014 17749 ft 333 kts 349°
2026-04-25 15:13 55.06782 38.31037 17325 ft 330 kts 349°
2026-04-25 15:13 55.11113 38.29932 16798 ft 303 kts 349°
2026-04-25 15:13 55.13171 38.29404 16547 ft 301 kts 349°
2026-04-25 15:14 55.14554 38.29048 16384 ft 302 kts 349°
2026-04-25 15:14 55.17218 38.27627 16053 ft 300 kts 338°
2026-04-25 15:14 55.19137 38.26317 15809 ft 299 kts 337°
2026-04-25 15:14 55.21070 38.24976 15561 ft 298 kts 337°
2026-04-25 15:15 55.23007 38.23637 15311 ft 297 kts 337°
2026-04-25 15:15 55.24898 38.22335 15066 ft 296 kts 337°
2026-04-25 15:15 55.26815 38.21021 14817 ft 295 kts 337°
2026-04-25 15:15 55.28719 38.19717 14569 ft 294 kts 337°
2026-04-25 15:16 55.30629 38.18409 14319 ft 293 kts 337°
2026-04-25 15:16 55.32445 38.16901 14063 ft 291 kts 326°
2026-04-25 15:16 55.35708 38.12667 13571 ft 289 kts 322°
2026-04-25 15:17 55.38828 38.08509 13061 ft 274 kts 322°
2026-04-25 15:17 55.40328 38.06519 12803 ft 267 kts 322°
2026-04-25 15:17 55.41802 38.04564 12545 ft 261 kts 322°
2026-04-25 15:18 55.43240 38.02658 12293 ft 260 kts 322°
2026-04-25 15:18 55.46129 37.98828 11795 ft 260 kts 322°
2026-04-25 15:18 55.47583 37.96900 11543 ft 259 kts 322°
2026-04-25 15:19 55.49011 37.95005 11294 ft 258 kts 322°
2026-04-25 15:19 55.49468 37.94380 11212 ft 256 kts 320°
2026-04-25 15:19 55.51611 37.90867 10786 ft 249 kts 315°
2026-04-25 15:19 55.52852 37.88757 10530 ft 245 kts 315°
2026-04-25 15:20 55.54077 37.86684 10274 ft 242 kts 315°
2026-04-25 15:20 55.55275 37.84663 10022 ft 239 kts 315°
2026-04-25 15:20 55.56470 37.82653 9751 ft 238 kts 316°
2026-04-25 15:20 55.57544 37.80393 9365 ft 240 kts 298°
2026-04-25 15:21 55.58062 37.77592 8999 ft 242 kts 279°
2026-04-25 15:21 55.58079 37.74672 8634 ft 244 kts 263°
2026-04-25 15:21 55.57703 37.71697 8262 ft 246 kts 256°
2026-04-25 15:21 55.57241 37.68795 7891 ft 247 kts 255°
2026-04-25 15:22 55.56751 37.65865 7515 ft 248 kts 255°
2026-04-25 15:22 55.56262 37.62976 7145 ft 248 kts 254°
2026-04-25 15:22 55.55492 37.60267 6761 ft 252 kts 233°
2026-04-25 15:22 55.54183 37.58194 6391 ft 254 kts 215°
2026-04-25 15:23 55.52585 37.56894 6016 ft 256 kts 199°
2026-04-25 15:23 55.50851 37.56264 5647 ft 257 kts 192°
2026-04-25 15:23 55.49072 37.55809 5271 ft 258 kts 190°
2026-04-25 15:23 55.47293 37.55400 4896 ft 257 kts 189°
2026-04-25 15:24 55.45536 37.55007 4524 ft 257 kts 189°
2026-04-25 15:24 55.43774 37.54615 4150 ft 256 kts 189°
2026-04-25 15:24 55.42025 37.54228 3962 ft 248 kts 189°
2026-04-25 15:24 55.41471 37.54106 3960 ft 243 kts 189°
2026-04-25 15:25 55.38807 37.53518 3960 ft 221 kts 189°
2026-04-25 15:25 55.37328 37.53192 3957 ft 210 kts 190°
2026-04-25 15:25 55.35892 37.52873 3968 ft 208 kts 190°
2026-04-25 15:25 55.34443 37.52685 3971 ft 212 kts 181°
2026-04-25 15:26 55.32968 37.52809 3973 ft 212 kts 179°
2026-04-25 15:26 55.31488 37.52963 3970 ft 211 kts 179°
2026-04-25 15:26 55.30033 37.53114 3971 ft 211 kts 179°
2026-04-25 15:26 55.28566 37.53260 3972 ft 211 kts 179°
2026-04-25 15:27 55.27087 37.53403 3972 ft 210 kts 179°
2026-04-25 15:27 55.25644 37.53539 3972 ft 210 kts 180°
2026-04-25 15:27 55.22720 37.53473 3896 ft 210 kts 200°
2026-04-25 15:28 55.21500 37.52179 3718 ft 202 kts 226°
2026-04-25 15:28 55.20782 37.50099 3477 ft 201 kts 253°
2026-04-25 15:28 55.20679 37.47671 3225 ft 201 kts 275°
2026-04-25 15:28 55.20856 37.45259 2998 ft 200 kts 278°
2026-04-25 15:29 55.21072 37.42856 2959 ft 199 kts 279°
2026-04-25 15:29 55.21347 37.40474 2955 ft 201 kts 290°
2026-04-25 15:29 55.22125 37.38457 2958 ft 203 kts 314°
2026-04-25 15:29 55.23317 37.37100 2957 ft 206 kts 336°
2026-04-25 15:30 55.24719 37.36641 2960 ft 208 kts 356°
2026-04-25 15:30 55.26160 37.36664 2964 ft 209 kts
2026-04-25 15:30 55.27617 37.36760 2961 ft 208 kts
2026-04-25 15:30 55.29068 37.36863 2961 ft 208 kts
2026-04-25 15:31 55.30508 37.36961 2961 ft 208 kts
2026-04-25 15:31 55.31960 37.37115 2916 ft 212 kts
2026-04-25 15:31 55.33356 37.37760 2943 ft 208 kts 14°
2026-04-25 15:31 55.34771 37.38460 2996 ft 211 kts 14°
2026-04-25 15:32 55.36192 37.39167 2987 ft 210 kts 14°
2026-04-25 15:32 55.37587 37.39854 2988 ft 210 kts 14°
2026-04-25 15:32 55.38989 37.40537 2989 ft 210 kts 14°
2026-04-25 15:33 55.41828 37.41909 2989 ft 210 kts 14°
2026-04-25 15:33 55.43236 37.42586 2989 ft 210 kts 14°
2026-04-25 15:33 55.44649 37.43265 2989 ft 210 kts 14°
2026-04-25 15:33 55.46060 37.43943 2989 ft 210 kts 14°
2026-04-25 15:34 55.46993 37.44391 2989 ft 210 kts 14°